(318937) = 2005 UC125

Discovered at Kitt Peak on 2005-10-24 by Spacewatch.

Orbit

Orbit type: Main Belt

Note: WebGL enabled browser required.

epoch2023-02-25.0
epoch JD2460000.5
perihelion date2021-09-12.20959
perihelion JD2459469.70959
argument of perihelion (°)217.93690
ascending node (°)233.12681
inclination (°)9.32052
eccentricity0.0756976
perihelion distance (AU)2.7409514
Tisserand w.r.t. Jupiter3.2
ΔV w.r.t. Earth (km/sec)10.7
semimajor axis (AU)2.9654272
mean anomaly (°)102.44624
mean daily motion (°/day)0.19300700
aphelion distance (AU)3.190
period (years)5.11
P-vector [x]-0.01207124
P-vector [y]0.95246227
P-vector [z]0.30441734
Q-vector [x]-0.99149807
Q-vector [y]0.02804483
Q-vector [z]-0.12706324
absolute magnitude16.73
phase slope0.15
uncertainty0
referenceMPO 745323
observations used219
oppositions13
arc length (days)8202
first opposition used2000
last opposition used2023
residual rms (arc-secs)0.79
perturbers coarse indicatorM-v
perturbers precise indicator003Ek
first observation date used2000-11-24.0
last observation date used2023-05-10.0
computer nameMPCLINUX
JD of orbit computation2456465.505570
perihelion JD uncertainty (days)4.2072E-04
argument of perihelion uncertainty (°)9.4380E-05
ascending node uncertainty (°)3.7090E-05
inclination uncertainty (°)1.1164E-05
eccentricity uncertainty 9.9756E-08
perihelion distance uncertainty (AU)2.7504E-07
Minimum Orbit Intersection Distances (in AU)
for orbit epoch: 2460000.5, reference: E2023-J99
Mercury2.43771
Venus2.02633
Earth1.76284
Mars1.18638
Jupiter2.06131
Saturn6.32682
Uranus15.5412
Neptune26.9726

Observations

222 total observations over interval: 2000 11 24.23531 – 2023 05 10.199673
These data are available for download (format description).

Date (UT) J2000 RA J2000 Dec Magn Location Ref
2000 11 24.23531 03 55 02.56 +18 23 51.0 20.7 V 691 – Steward Observatory, Kitt Peak-Spacewatch MPS 168840
2000 11 24.25726 03 55 01.38 +18 23 43.2 21.0 V 691 – Steward Observatory, Kitt Peak-Spacewatch MPS 168840
2000 11 24.27924 03 55 00.20 +18 23 35.4 20.6 V 691 – Steward Observatory, Kitt Peak-Spacewatch MPS 168840
2000 12 28.06787 03 33 06.60 +15 36 52.3 22.0 V 691 – Steward Observatory, Kitt Peak-Spacewatch MPS 168840
2000 12 28.09489 03 33 06.11 +15 36 47.4 21.1 V 691 – Steward Observatory, Kitt Peak-Spacewatch MPS 168840
2000 12 28.12231 03 33 05.61 +15 36 42.0 21.8 V 691 – Steward Observatory, Kitt Peak-Spacewatch MPS 168840
2005 10 24.31783 03 26 43.87 +20 39 34.5 20.4 V 691 – Steward Observatory, Kitt Peak-Spacewatch MPS 147953
2005 10 24.33522 03 26 43.12 +20 39 29.1 20.3 V 691 – Steward Observatory, Kitt Peak-Spacewatch MPS 147953
2005 10 24.35259 03 26 42.41 +20 39 23.6 20.4 V 691 – Steward Observatory, Kitt Peak-Spacewatch MPS 147953
2005 10 27.36258 03 24 38.30 +20 22 51.9 20.6 V G96 – Mt. Lemmon Survey MPS 147953
2005 10 27.36942 03 24 38.01 +20 22 50.1 20.4 V G96 – Mt. Lemmon Survey MPS 147953
2005 10 27.37626 03 24 37.65 +20 22 47.1 20.2 V G96 – Mt. Lemmon Survey MPS 147953
2005 10 27.38314 03 24 37.36 +20 22 45.0 20.9 V G96 – Mt. Lemmon Survey MPS 147953
2005 11 01.28729 03 20 57.90 +19 53 54.7 20.4 V 691 – Steward Observatory, Kitt Peak-Spacewatch MPS 150886
2005 11 01.30454 03 20 57.03 +19 53 48.7 20.4 V 691 – Steward Observatory, Kitt Peak-Spacewatch MPS 150886
2005 11 01.32184 03 20 56.19 +19 53 42.3 20.4 V 691 – Steward Observatory, Kitt Peak-Spacewatch MPS 150886
2005 11 11.23448 03 12 51.28 +18 49 50.5 20.4 V 691 – Steward Observatory, Kitt Peak-Spacewatch MPS 155360
2005 11 11.25976 03 12 49.97 +18 49 40.6 20.0 V 691 – Steward Observatory, Kitt Peak-Spacewatch MPS 155360
2005 11 11.28497 03 12 48.66 +18 49 30.5 20.0 V 691 – Steward Observatory, Kitt Peak-Spacewatch MPS 155360
2005 11 25.30690 03 01 30.43 +17 15 16.2 20.6 V G96 – Mt. Lemmon Survey MPS 155360
2005 11 25.31578 03 01 30.00 +17 15 12.6 20.2 V G96 – Mt. Lemmon Survey MPS 155360
2005 11 25.32418 03 01 29.60 +17 15 09.5 20.4 V G96 – Mt. Lemmon Survey MPS 155360
2005 11 25.33211 03 01 29.24 +17 15 06.1 20.1 V G96 – Mt. Lemmon Survey MPS 155360
2005 12 06.07553 02 54 26.04 +16 08 59.4 21.1 V 691 – Steward Observatory, Kitt Peak-Spacewatch MPS 155360
2005 12 06.09655 02 54 25.29 +16 08 52.2 21.1 V 691 – Steward Observatory, Kitt Peak-Spacewatch MPS 155360
2005 12 06.11759 02 54 24.55 +16 08 46.2 21.5 V 691 – Steward Observatory, Kitt Peak-Spacewatch MPS 155360
2008 05 28.28288 15 31 23.44 -17 47 15.3 21.3 V G96 – Mt. Lemmon Survey MPS 250960
2008 05 28.28870 15 31 23.12 -17 47 13.2 20.7 V G96 – Mt. Lemmon Survey MPS 250960
2008 05 28.29455 15 31 22.90 -17 47 11.7 21.0 V G96 – Mt. Lemmon Survey MPS 250960
2008 05 28.30042 15 31 22.62 -17 47 09.5 21.0 V G96 – Mt. Lemmon Survey MPS 250960
2008 05 31.26877 15 29 09.83 -17 32 21.0 20.6 V 691 – Steward Observatory, Kitt Peak-Spacewatch MPS 250960
2008 05 31.28640 15 29 09.06 -17 32 16.0 21.0 V 691 – Steward Observatory, Kitt Peak-Spacewatch MPS 250960
2008 05 31.30405 15 29 08.27 -17 32 10.8 21.3 V 691 – Steward Observatory, Kitt Peak-Spacewatch MPS 250960
2010 10 08.420614 02 43 41.449 +20 29 44.70 21.19 w F51 – Pan-STARRS 1, Haleakala MPS 365555
2010 10 08.438844 02 43 40.824 +20 29 39.80 21.76 w F51 – Pan-STARRS 1, Haleakala MPS 365555
2010 10 08.457935 02 43 40.166 +20 29 34.81 21.28 w F51 – Pan-STARRS 1, Haleakala MPS 365555
2010 11 13.21145 02 17 22.38 +16 40 15.0 20.4 V G96 – Mt. Lemmon Survey MPS 357430
2010 11 13.22747 02 17 21.66 +16 40 08.1 20.3 V G96 – Mt. Lemmon Survey MPS 357430
2010 11 13.23556 02 17 21.30 +16 40 04.5 20.5 V G96 – Mt. Lemmon Survey MPS 357430
2011 01 03.11043 02 06 31.82 +12 50 50.5 21.1 V G96 – Mt. Lemmon Survey MPS 363351
2011 01 03.11899 02 06 32.04 +12 50 50.6 21.4 V G96 – Mt. Lemmon Survey MPS 363351
2011 01 03.12936 02 06 32.22 +12 50 49.2 21.2 V G96 – Mt. Lemmon Survey MPS 363351
2011 01 03.14044 02 06 32.43 +12 50 47.9 21.2 V G96 – Mt. Lemmon Survey MPS 363351
2012 01 25.41707 09 34 19.864 -00 13 42.36 21.3 w F51 – Pan-STARRS 1, Haleakala MPS 408800
2012 01 25.43132 09 34 19.214 -00 13 41.20 21.4 w F51 – Pan-STARRS 1, Haleakala MPS 408800
2012 01 25.44564 09 34 18.568 -00 13 40.22 21.1 w F51 – Pan-STARRS 1, Haleakala MPS 408800
2012 01 25.46000 09 34 17.917 -00 13 39.10 21.1 w F51 – Pan-STARRS 1, Haleakala MPS 408800
2012 02 16.44071 09 16 45.795 +00 53 43.40 20.6 g F51 – Pan-STARRS 1, Haleakala MPS 413012
2012 02 16.45319 09 16 45.186 +00 53 46.81 20.9 g F51 – Pan-STARRS 1, Haleakala MPS 413012
2013 05 11.34066 15 01 59.34 -18 14 54.2 20.6 V G96 – Mt. Lemmon Survey MPS 468612
2013 05 11.34597 15 01 59.05 -18 14 51.6 20.2 V G96 – Mt. Lemmon Survey MPS 468612
2013 05 11.35132 15 01 58.80 -18 14 49.9 21.9 V G96 – Mt. Lemmon Survey MPS 468612
2013 05 11.35664 15 01 58.58 -18 14 47.6 20.2 V G96 – Mt. Lemmon Survey MPS 468612
2015 07 25.59050 01 48 32.261 +18 21 57.79 21.8 w F51 – Pan-STARRS 1, Haleakala MPS 618408
2015 07 25.60439 01 48 32.897 +18 22 01.46 21.5 w F51 – Pan-STARRS 1, Haleakala MPS 618408
2015 11 03.59497 01 32 43.60 +15 17 45.2 20.6 R D29 – Purple Mountain Observatory, XuYi Station MPS 644959
2015 11 03.61029 01 32 42.94 +15 17 38.2 21.0 R D29 – Purple Mountain Observatory, XuYi Station MPS 644959
2015 11 03.62562 01 32 42.28 +15 17 31.4 20.6 R D29 – Purple Mountain Observatory, XuYi Station MPS 644959
2015 11 09.24340 01 29 01.78 +14 35 03.3 21.0 V G96 – Mt. Lemmon Survey MPS 650108
2015 11 09.25074 01 29 01.50 +14 35 00.2 21.2 V G96 – Mt. Lemmon Survey MPS 650108
2015 11 09.25809 01 29 01.27 +14 34 56.7 21.2 V G96 – Mt. Lemmon Survey MPS 650108
2015 11 09.26543 01 29 00.91 +14 34 53.2   G96 – Mt. Lemmon Survey MPS 650108
2015 11 19.25908 01 23 48.81 +13 24 28.0 20.8 r G45 – Space Surveillance Telescope, Atom Site MPS 653286
2015 11 19.26902 01 23 48.53 +13 24 23.0 21.2 r G45 – Space Surveillance Telescope, Atom Site MPS 653286
2015 11 19.27420 01 23 48.42 +13 24 20.7 21.5 r G45 – Space Surveillance Telescope, Atom Site MPS 653286
2015 11 19.27926 01 23 48.28 +13 24 19.2 21.1 r G45 – Space Surveillance Telescope, Atom Site MPS 653286
2015 12 03.22132 01 20 10.330 +12 05 54.63 21.4 w F51 – Pan-STARRS 1, Haleakala MPS 656876
2015 12 03.23384 01 20 10.236 +12 05 51.10 21.0 w F51 – Pan-STARRS 1, Haleakala MPS 656876
2015 12 03.24639 01 20 10.156 +12 05 47.54 20.9 w F51 – Pan-STARRS 1, Haleakala MPS 656876
2015 12 14.32120 01 20 34.404 +11 24 56.28 21.3 w F51 – Pan-STARRS 1, Haleakala MPS 662477
2015 12 14.33463 01 20 34.526 +11 24 54.00 21.4 w F51 – Pan-STARRS 1, Haleakala MPS 662477
2015 12 14.34802 01 20 34.655 +11 24 51.93 21.2 w F51 – Pan-STARRS 1, Haleakala MPS 662477
2016 01 30.25962 01 50 44.875 +11 54 03.73 21.9 w F51 – Pan-STARRS 1, Haleakala MPS 678615
2016 01 30.26369 01 50 45.148 +11 54 04.36 22.0 w F51 – Pan-STARRS 1, Haleakala MPS 678615
2016 01 30.26780 01 50 45.384 +11 54 05.16 21.9 w F51 – Pan-STARRS 1, Haleakala MPS 678615
2017 01 28.34779 08 42 11.69 +03 46 02.0 20.6 V G96 – Mt. Lemmon Survey MPS 765545
2017 01 28.35651 08 42 11.23 +03 46 03.5 20.5 V G96 – Mt. Lemmon Survey MPS 765545
2017 01 28.36251 08 42 10.86 +03 46 03.1 21.0 V G96 – Mt. Lemmon Survey MPS 765545
2017 01 28.36689 08 42 10.71 +03 46 04.4 20.8 V G96 – Mt. Lemmon Survey MPS 765545
2017 01 29.45090 08 41 15.403 +03 48 47.68 20.3 w F51 – Pan-STARRS 1, Haleakala MPS 765545
2017 01 29.46202 08 41 14.811 +03 48 49.38 20.2 w F51 – Pan-STARRS 1, Haleakala MPS 765545
2017 01 29.47315 08 41 14.226 +03 48 51.03 20.2 w F51 – Pan-STARRS 1, Haleakala MPS 765545
2017 01 29.48423 08 41 13.638 +03 48 52.84 20.4 w F51 – Pan-STARRS 1, Haleakala MPS 765545
2017 01 31.20554 08 39 46.17 +03 53 28.8 21.2 G G45 – Space Surveillance Telescope, Atom Site MPS 1609486
2017 01 31.22563 08 39 45.08 +03 53 31.6 20.8 G G45 – Space Surveillance Telescope, Atom Site MPS 1609486
2017 01 31.26600 08 39 42.98 +03 53 39.3 21.0 G G45 – Space Surveillance Telescope, Atom Site MPS 1609486
2017 01 31.28564 08 39 41.96 +03 53 41.8 20.9 G G45 – Space Surveillance Telescope, Atom Site MPS 1609486
